Theta_e
315 315 316 315 315 315 313 312 312 311 310 311 311 312 312 312 313 313 312 312 312 312 313 312 313 313 312 312 312 312 312 312 312 311 311 312 314 315 315 315 316 316 316 317 318 319 319 320 321 323 324 325 326 326 327 328 328 327 329 331 332 332 332 332 333 333 331 331 331 330 328 327 327 328 329 331 330 332 335 335 334 334 335 335 335
316 316 315 315 314 315 313 312 312 311 310 310 311 312 312 312 312 312 312 312 312 312 312 312 312 311 311 311 311 311 311 311 312 311 310 310 311 314 315 315 315 316 316 316 316 317 319 320 320 321 323 324 325 326 327 328 329 329 329 330 331 332 333 332 333 333 332 330 331 331 329 329 329 328 327 328 328 328 331 333 334 334 334 335 335
316 316 315 315 315 314 313 313 313 311 310 311 312 312 312 312 312 312 312 312 312 312 312 311 311 311 310 310 310 310 310 310 310 310 311 310 310 311 313 314 314 314 315 315 315 315 317 318 319 320 320 322 324 325 326 327 328 329 329 330 331 331 332 332 333 333 332 330 330 330 330 330 329 329 328 327 326 327 329 331 334 334 335 335 335
316 315 315 315 314 313 313 313 312 311 310 311 311 311 311 311 311 311 311 311 311 311 310 310 310 310 309 309 309 309 309 309 310 309 309 310 310 310 311 312 314 314 314 314 314 314 315 316 318 319 320 321 322 324 325 326 326 327 329 330 332 332 331 332 333 333 332 331 330 329 330 330 330 330 331 329 327 328 333 334 334 334 334 334 334
316 315 315 314 313 313 313 313 311 310 311 311 310 310 310 310 310 310 310 309 309 309 309 309 309 309 309 309 308 309 308 308 308 308 308 309 310 310 310 311 312 313 313 314 314 314 315 315 316 318 320 321 322 323 324 325 326 327 328 329 330 331 331 332 333 333 333 332 330 329 330 331 331 331 331 331 330 331 333 333 334 334 334 334 334
316 315 314 313 313 313 313 311 310 310 311 310 310 309 309 309 309 309 309 308 308 308 308 308 308 308 308 308 308 308 308 308 308 308 308 308 309 309 310 310 311 311 312 313 314 314 315 315 315 316 318 319 321 322 323 325 326 326 327 328 329 330 331 331 332 333 334 332 331 330 330 331 332 331 331 331 332 333 332 330 330 331 331 333 334
315 315 314 313 313 313 312 310 310 311 310 309 309 309 309 309 309 308 308 308 308 308 308 308 308 308 308 308 308 308 308 308 308 308 308 308 308 308 309 309 310 310 311 311 312 313 314 314 315 315 316 318 319 319 321 323 324 325 326 327 328 329 330 331 332 332 333 333 332 332 331 331 332 331 330 331 332 333 331 329 329 329 330 332 332
315 315 314 313 313 312 311 310 310 310 309 309 308 308 309 308 308 308 308 307 307 307 307 307 307 307 308 308 308 308 307 307 307 307 307 307 307 308 308 308 309 309 309 310 311 311 312 312 313 314 314 316 317 318 318 319 321 323 324 325 326 327 329 330 332 332 332 332 332 333 333 332 332 332 331 332 333 332 330 329 330 330 332 333 331
315 314 313 313 312 310 310 310 310 310 309 308 308 308 308 308 307 307 306 306 306 306 306 305 305 305 306 306 306 306 306 306 306 306 306 306 306 306 306 306 307 307 307 308 308 309 310 310 310 312 313 314 315 316 316 317 318 319 321 322 324 325 327 328 330 331 331 332 332 332 332 332 333 333 332 332 332 331 330 331 332 332 332 332 331
314 313 313 312 310 310 310 310 310 309 308 308 308 307 307 307 306 306 305 306 306 305 305 305 304 304 304 304 304 304 304 304 305 305 305 305 305 305 304 304 304 304 304 304 305 306 307 308 308 309 310 312 313 313 314 315 316 317 318 319 321 324 326 327 328 329 330 331 331 331 331 333 333 333 333 332 332 332 332 332 333 332 332 332 331
313 312 311 310 309 310 310 310 309 308 308 308 307 307 307 306 305 305 305 305 305 305 304 304 304 303 303 303 303 303 303 303 304 304 303 303 303 303 303 303 303 303 302 302 302 302 304 305 306 307 308 309 310 311 312 313 314 315 316 317 320 324 325 326 328 328 329 330 330 329 330 331 331 331 332 332 332 333 333 333 333 333 332 332 330
312 311 310 309 310 310 310 309 308 308 307 307 307 307 306 305 305 305 305 305 304 304 304 303 303 303 302 302 302 302 302 302 302 302 302 302 302 302 302 302 301 301 301 301 301 301 302 303 305 306 307 308 308 309 311 312 313 314 315 316 320 323 324 325 327 328 328 329 328 328 329 329 329 330 331 331 331 332 333 333 333 333 332 332 332
311 310 310 309 310 310 309 308 308 307 307 307 306 306 305 305 305 305 305 304 304 303 303 303 302 302 301 301 301 301 301 301 301 301 301 301 301 301 301 301 300 300 300 300 300 300 301 302 303 304 306 307 308 309 310 311 312 313 315 317 321 323 323 324 325 326 327 328 328 327 328 328 329 329 328 329 330 331 331 332 332 332 332 332 332
310 310 309 310 310 309 308 308 307 307 307 306 306 305 305 305 305 305 304 304 303 303 303 302 302 301 301 301 301 301 300 300 300 300 299 299 299 299 299 299 299 299 299 299 299 299 300 301 302 303 304 305 307 308 310 311 312 313 314 316 320 322 323 324 324 325 327 327 327 327 326 326 327 326 324 326 327 328 329 330 331 331 332 332 332
310 309 309 309 309 308 308 307 307 306 306 306 305 305 304 305 304 304 303 303 303 302 302 301 301 301 301 300 300 300 300 300 299 299 298 298 297 297 297 297 297 298 298 299 298 299 300 301 301 302 303 305 306 308 310 311 312 314 314 315 317 320 322 323 323 324 325 325 325 325 325 324 324 324 323 323 323 323 325 326 326 326 327 329 331
310 309 309 309 308 308 308 307 306 306 306 305 305 304 304 304 304 303 303 302 302 302 302 301 301 300 300 300 299 299 299 299 299 298 298 297 297 297 297 297 297 297 297 297 298 298 299 300 301 302 303 304 306 308 310 311 312 314 315 316 317 318 320 321 322 322 323 323 323 324 324 324 323 323 324 324 324 324 323 324 325 326 327 328 329
310 309 309 308 308 307 307 306 306 306 305 305 304 304 304 304 303 303 302 302 302 302 302 301 301 300 300 299 299 299 299 298 298 297 297 297 297 296 296 296 297 297 297 298 298 298 299 299 300 301 302 303 305 307 309 310 311 313 314 316 318 318 319 320 322 322 322 323 323 324 324 324 323 323 323 325 326 326 326 327 327 328 329 329 329
309 309 309 308 307 307 306 306 306 305 305 305 304 304 304 303 303 302 302 302 302 302 301 301 300 300 300 299 299 299 299 299 298 297 297 296 296 296 295 296 297 298 299 300 300 300 300 300 300 301 302 303 304 305 307 308 310 311 313 314 316 318 319 320 321 321 322 322 322 323 323 324 324 323 322 323 323 324 325 326 327 328 329 329 329
309 309 308 307 307 306 306 306 305 305 304 304 303 303 303 303 302 302 301 302 302 302 301 301 300 300 300 300 300 300 299 299 298 297 297 296 296 295 296 297 298 299 300 301 301 301 301 302 301 301 301 302 303 304 306 308 309 310 311 313 315 316 317 318 319 320 321 321 321 322 322 322 323 323 322 322 322 323 324 325 325 326 327 327 327
309 308 307 307 306 306 305 305 305 305 304 304 303 303 303 303 302 301 301 302 302 301 301 300 300 300 300 300 300 299 298 299 299 298 297 297 296 296 297 298 299 299 300 300 301 301 301 302 302 301 300 301 303 304 305 306 307 308 310 311 313 314 315 316 318 319 319 319 320 320 320 320 320 321 322 322 322 323 323 323 324 325 325 325 326
309 307 307 306 306 306 305 305 305 305 304 304 304 303 303 303 302 301 301 301 301 301 301 300 300 300 300 300 299 298 298 299 299 299 298 297 297 297 298 298 298 298 299 299 300 301 300 300 300 300 300 301 302 303 304 305 306 307 308 310 311 312 313 315 316 317 317 317 317 318 318 317 317 318 320 321 322 321 321 322 323 324 324 325 326
308 307 306 306 306 306 305 304 304 304 304 304 304 302 302 303 302 302 301 300 300 300 301 300 300 300 301 300 299 298 299 299 300 300 299 298 298 298 297 297 297 297 298 299 300 300 300 299 299 299 300 301 302 303 304 305 306 307 308 309 310 311 312 313 314 315 315 315 316 317 316 316 315 315 316 319 321 322 321 322 322 323 324 324 325
308 307 306 307 306 305 305 304 304 304 303 304 304 302 302 303 303 302 301 299 298 300 300 300 300 301 301 301 300 299 300 301 301 301 300 300 300 299 298 297 297 297 298 299 299 299 299 299 299 299 300 301 302 302 303 305 306 307 308 309 310 310 311 312 313 314 314 315 316 316 315 315 314 313 312 314 317 319 320 322 324 325 325 324 325
307 307 307 306 305 305 305 304 304 304 304 304 304 303 303 303 303 302 299 297 296 298 299 299 300 301 301 302 301 301 301 302 301 301 301 301 300 299 299 299 298 298 299 299 299 299 298 298 298 298 298 299 300 301 302 303 305 306 307 308 309 309 310 310 311 312 313 314 315 315 315 315 315 315 314 313 313 314 315 318 321 324 324 323 323
307 307 306 306 305 305 305 304 304 304 304 303 303 303 303 302 302 301 298 294 293 295 296 298 300 301 301 302 302 301 302 301 301 301 302 301 301 300 300 299 299 298 298 298 298 298 298 297 297 297 297 298 298 299 299 300 301 303 304 306 307 307 308 309 310 310 311 312 313 314 315 316 316 317 317 317 317 317 317 316 317 319 321 321 322
308 307 307 306 305 305 304 304 305 304 303 303 303 303 302 301 300 299 296 292 292 292 293 295 298 299 301 302 302 302 302 301 301 302 302 302 302 301 300 299 298 298 298 298 298 298 297 297 297 297 297 297 297 297 298 298 299 300 302 302 303 304 305 306 307 308 308 309 310 312 313 315 316 317 318 318 319 319 319 318 318 318 319 320 322
308 307 306 306 305 304 304 305 304 303 303 304 303 302 302 301 298 296 294 291 291 291 291 293 294 296 298 300 301 301 301 301 301 302 302 302 302 301 300 299 298 298 298 298 298 298 297 297 297 297 297 297 297 297 297 298 299 299 300 300 300 301 301 302 303 304 305 306 307 309 311 313 315 316 317 318 319 319 320 320 320 319 319 318 319
308 307 306 306 305 305 305 305 304 303 304 304 303 302 302 300 297 295 293 291 291 290 290 291 292 293 294 297 299 300 300 300 300 300 300 301 301 301 301 300 299 299 299 299 298 298 298 298 298 297 297 297 297 297 297 297 297 298 298 299 299 299 300 301 301 302 303 304 305 306 308 309 311 313 314 315 316 316 317 317 317 317 316 315 315
307 306 306 306 305 305 305 304 304 304 304 304 302 301 301 299 297 296 294 292 291 290 290 290 291 291 291 293 295 297 298 299 299 299 299 299 300 300 300 300 300 300 300 299 299 298 297 297 297 297 297 297 297 297 297 297 297 297 297 298 298 298 298 299 300 301 301 302 303 304 305 307 308 309 310 311 312 312 312 313 313 313 313 314 315
306 305 305 305 305 305 305 304 303 304 304 303 301 300 300 299 297 296 295 293 291 291 290 290 290 290 290 290 292 294 296 298 298 298 297 297 297 297 298 298 299 299 300 300 300 299 298 297 297 297 297 297 297 297 297 297 297 297 297 297 297 297 297 297 297 298 299 300 301 302 303 305 306 307 308 309 309 310 310 311 312 313 314 315 316
306 306 305 305 305 305 305 303 302 303 303 302 300 300 299 298 297 297 296 294 292 291 291 290 290 290 290 290 290 291 293 295 296 296 295 294 294 294 294 294 295 296 297 298 298 298 298 297 297 297 296 296 296 296 297 298 298 297 297 297 297 296 296 296 296 296 297 298 299 300 301 302 303 304 305 306 306 308 308 309 310 310 311 312 312
306 305 305 305 305 305 305 303 302 302 302 301 300 299 298 298 297 297 296 294 293 293 292 291 290 290 290 290 290 290 290 291 292 292 292 291 291 291 291 291 291 292 293 294 294 294 295 295 295 296 296 295 295 295 296 297 297 297 297 297 297 296 295 295 295 296 296 297 298 298 299 299 300 301 302 303 304 305 306 306 306 306 306 306 306
306 305 305 305 305 305 304 303 301 301 301 301 300 299 298 297 297 296 295 294 294 294 294 293 292 291 290 290 290 289 290 290 289 290 290 290 290 290 289 289 289 289 290 291 291 291 291 291 292 293 294 294 293 294 295 296 296 296 296 296 296 295 294 294 295 297 297 297 298 298 298 298 298 299 300 301 302 303 303 303 303 303 303 303 303
305 305 304 305 305 305 304 303 302 302 301 300 299 298 297 297 296 295 295 295 295 295 295 295 294 292 290 290 289 289 289 289 289 289 289 289 290 290 289 289 289 289 289 289 289 289 289 289 289 290 291 291 292 292 292 293 294 295 295 295 295 295 294 294 294 295 296 297 298 299 299 299 299 299 298 299 299 300 301 301 301 302 302 302 302
305 305 304 303 304 305 305 304 303 302 301 300 299 298 297 296 295 295 295 295 295 295 296 295 294 293 292 290 289 289 289 289 289 289 289 290 290 290 289 289 289 289 289 289 289 288 288 288 288 288 288 289 289 290 290 290 291 293 294 293 293 294 294 294 293 292 293 294 296 298 299 299 299 299 299 299 298 298 299 300 300 300 300 300 300
305 305 304 302 302 303 303 303 303 302 301 300 299 297 296 296 295 294 295 296 295 295 296 296 294 293 293 292 290 289 289 289 289 289 289 290 290 290 290 289 288 288 288 288 288 288 288 288 288 288 288 288 288 288 288 288 288 290 291 291 291 291 291 292 291 290 290 291 292 294 295 296 297 297 298 298 297 295 296 297 298 298 298 298 298
305 305 304 304 303 302 300 301 302 302 301 300 297 295 296 296 295 294 295 296 295 294 295 296 294 293 293 293 291 290 290 290 289 289 289 289 289 289 289 289 288 288 288 288 288 288 287 287 287 287 287 288 288 288 288 287 287 287 288 289 289 289 289 289 289 289 289 289 289 290 291 292 293 294 294 295 294 293 293 294 295 295 295 295 295
306 304 304 304 305 303 301 301 302 303 302 299 295 294 296 297 295 295 295 295 294 294 295 295 294 293 293 292 290 290 291 291 290 289 289 289 289 289 289 289 288 288 288 288 288 288 287 287 287 287 287 287 287 287 287 287 287 287 287 287 287 287 288 288 288 288 288 288 289 289 289 289 290 291 292 292 292 291 291 291 292 293 293 292 293
306 304 303 303 304 304 303 302 303 303 301 298 295 295 296 296 295 295 295 296 295 295 295 294 293 292 291 291 290 290 291 291 290 289 289 289 289 288 288 288 288 288 288 288 288 288 287 287 287 287 287 287 287 287 287 287 287 287 287 287 287 287 287 288 288 288 288 288 288 289 289 288 289 289 290 290 290 290 290 290 290 291 292 292 292
306 305 303 302 303 304 304 304 303 302 301 298 297 297 297 295 294 295 295 296 296 295 294 294 293 291 290 290 290 290 290 290 290 289 289 289 288 288 288 288 288 288 288 288 288 287 287 287 287 287 287 287 287 287 287 287 287 287 287 287 287 287 288 288 288 288 288 288 288 289 289 289 289 289 289 289 290 290 290 290 290 290 291 292 292
306 305 304 303 302 303 303 303 303 302 300 299 298 297 296 295 295 295 295 295 295 295 293 292 291 291 290 290 290 290 290 290 290 289 289 289 288 288 288 288 288 288 288 288 288 287 287 287 287 287 287 287 287 287 287 287 287 287 287 287 288 288 288 288 288 289 288 288 287 288 289 289 289 289 289 289 289 289 289 289 289 289 290 291 292
306 305 305 304 303 302 302 301 301 301 300 299 298 297 296 296 295 294 294 295 295 294 293 292 291 290 290 290 290 290 290 290 289 289 289 289 289 288 288 288 288 287 287 287 287 287 287 287 287 287 287 287 286 286 286 287 287 287 287 287 288 288 288 288 288 289 289 288 287 287 288 288 288 288 288 288 288 288 289 289 289 289 290 291 292
306 305 305 304 304 303 302 301 300 299 299 299 299 298 296 296 295 294 294 294 294 294 293 293 291 290 290 290 290 290 290 290 289 289 289 289 289 288 288 288 288 287 287 287 287 287 287 287 287 287 287 287 286 286 286 286 287 287 287 287 288 288 288 288 288 288 289 288 287 287 287 288 288 288 288 288 288 287 288 289 289 289 290 290 291
306 305 305 304 304 304 303 302 300 300 299 299 299 298 296 295 295 294 294 293 293 293 293 293 292 291 290 290 290 290 290 290 289 289 289 289 289 289 288 288 287 287 287 287 287 287 287 287 287 287 287 287 286 286 286 286 286 287 287 287 288 287 288 288 288 288 289 288 287 287 287 287 287 288 288 288 288 287 287 288 289 289 289 290 291
306 305 305 304 304 304 303 302 301 300 300 300 299 298 296 295 294 294 294 294 293 292 293 293 293 292 291 291 291 290 290 290 289 289 289 289 289 289 288 288 287 287 287 287 287 287 287 287 286 287 287 287 286 286 286 286 286 287 287 287 287 287 288 288 288 288 288 288 288 287 287 287 287 287 288 288 287 287 287 287 288 288 289 289 290
306 305 304 304 304 304 304 303 301 300 300 300 299 298 297 296 295 294 294 295 294 293 293 294 293 292 291 292 291 290 290 290 289 289 289 289 289 289 288 288 288 287 287 287 287 287 287 287 286 286 286 286 286 286 286 286 286 286 287 286 287 287 287 287 288 288 288 288 288 287 287 287 287 287 287 287 287 287 288 287 287 287 288 288 289
306 305 304 304 303 303 303 303 301 300 300 300 299 298 298 296 295 294 294 295 294 294 294 294 293 292 292 292 291 290 289 289 289 289 289 289 289 289 288 288 288 288 287 287 287 287 287 287 286 286 286 286 286 286 286 286 286 286 286 286 286 286 287 287 287 288 288 288 288 288 287 287 287 287 287 287 287 287 287 287 287 287 287 287 288
306 305 304 303 303 303 303 303 302 301 301 300 299 298 297 296 295 294 295 295 294 293 293 293 293 293 292 292 292 290 290 289 289 289 288 289 289 288 288 288 288 288 287 287 287 287 287 286 286 286 286 286 286 286 286 286 286 286 286 286 286 286 286 286 287 287 287 288 288 288 287 287 288 288 287 287 287 287 287 287 287 287 287 287 287
305 304 303 303 302 302 303 303 302 301 301 301 300 298 297 296 295 295 295 295 294 293 293 293 293 293 293 293 292 291 290 289 289 288 288 289 288 288 288 288 288 288 288 287 287 287 287 286 287 286 286 286 286 286 286 286 286 286 286 286 286 286 286 286 286 287 287 287 288 288 287 286 287 288 287 287 287 287 287 287 287 287 287 287 287
305 304 303 302 302 302 302 302 302 302 301 301 300 298 297 296 296 296 295 295 294 293 292 293 294 294 293 293 292 291 290 289 289 289 289 289 288 288 288 288 288 288 288 287 287 287 287 286 287 286 286 286 286 286 286 286 286 286 286 286 286 286 286 286 286 287 287 287 287 287 287 286 287 287 287 287 287 287 287 287 287 287 287 287 287
305 304 303 302 301 301 301 302 302 302 301 301 300 299 297 297 296 296 295 295 294 293 292 293 294 294 293 292 292 291 290 290 290 289 289 289 289 288 288 288 287 287 287 287 287 287 287 286 286 286 286 286 286 286 286 286 286 285 286 286 286 286 286 286 286 286 286 286 286 286 286 286 286 287 287 287 287 287 287 287 288 288 287 287 287
Wind_Speed
5 3 4 5 7 13 19 18 16 17 17 15 15 14 14 14 15 15 16 17 17 17 18 18 18 19 19 19 19 20 20 20 21 21 22 22 22 21 23 23 23 23 24 25 25 25 26 28 29 29 29 32 35 35 36 38 38 37 36 37 39 42 46 47 45 48 51 50 49 49 46 42 39 36 32 30 30 30 31 29 29 32 33 33 33
2 3 5 7 8 16 20 17 15 17 17 15 14 13 14 15 15 16 17 17 17 17 18 18 19 19 20 20 20 20 20 20 20 21 23 23 22 21 21 22 24 25 26 26 26 25 25 27 28 29 28 29 32 33 36 38 37 35 36 37 40 41 43 45 46 47 49 50 48 47 47 44 41 40 38 35 33 33 33 30 27 28 29 29 30
3 6 7 7 12 18 17 14 14 17 16 14 13 14 15 16 16 16 17 18 18 18 18 19 19 20 20 21 21 21 21 20 20 21 22 24 24 23 22 22 22 24 27 28 27 26 26 26 26 27 28 29 31 32 34 37 37 37 38 38 38 38 38 40 43 45 48 49 47 45 45 45 44 43 41 41 40 38 37 35 31 27 26 27 28
7 8 8 11 15 17 14 12 14 15 13 12 14 16 16 16 17 17 17 18 18 18 18 19 19 19 20 20 20 21 21 20 21 22 22 22 23 24 24 24 23 22 25 27 28 28 27 27 27 27 27 28 30 31 32 35 37 39 40 38 36 37 38 39 41 43 45 47 47 46 45 45 45 43 41 41 41 39 36 35 33 30 28 30 31
10 9 12 16 16 13 12 13 14 13 11 12 14 16 16 16 17 18 18 19 19 20 20 20 20 20 20 20 20 20 20 20 21 23 23 22 22 22 24 25 24 24 24 23 24 25 26 26 28 29 28 26 26 28 30 33 34 36 40 41 39 38 39 41 42 41 43 46 47 45 44 44 43 42 41 39 39 39 39 37 36 34 34 35 35
9 10 15 16 13 11 12 13 13 12 11 12 14 15 15 17 18 18 19 19 20 20 19 18 18 18 19 20 20 20 20 21 21 21 22 22 22 22 22 23 25 27 27 25 23 25 26 26 27 30 31 29 26 26 28 30 30 30 33 37 39 41 41 42 42 40 40 42 45 44 44 44 43 42 42 40 39 40 41 42 42 39 39 39 38
7 11 15 13 11 12 13 12 12 10 11 12 13 14 15 17 18 18 18 19 21 21 21 22 21 19 18 19 20 21 22 22 22 21 21 21 21 22 24 25 27 29 31 32 30 30 30 30 30 33 35 34 30 26 26 29 30 30 30 30 32 36 39 40 41 40 38 38 41 43 43 44 44 44 45 43 41 42 43 44 44 42 39 37 35
12 14 14 11 11 12 12 11 11 10 10 12 13 15 16 17 18 19 19 21 21 22 24 25 25 25 25 25 25 25 23 22 22 21 21 22 23 24 26 27 28 30 32 34 35 34 35 34 34 35 36 37 35 31 29 30 31 33 33 31 30 31 32 34 37 38 37 39 40 40 40 42 43 43 44 42 41 43 45 45 45 42 38 35 33
15 13 10 10 11 12 11 10 10 10 11 12 14 15 16 17 18 19 20 20 20 21 21 21 21 22 23 25 25 24 22 20 19 20 22 24 25 27 28 29 31 32 33 36 37 38 38 39 39 39 38 38 39 39 38 36 34 35 35 34 34 34 32 33 35 35 36 38 38 37 37 38 40 40 40 40 40 40 41 42 41 39 38 36 35
12 10 9 10 11 10 9 9 10 10 11 13 14 15 16 17 18 18 18 18 20 21 19 18 18 17 18 19 19 19 18 17 17 20 23 25 27 28 30 31 32 33 34 36 38 39 40 40 42 43 42 40 40 41 42 41 38 37 36 35 36 36 34 33 34 34 36 37 36 33 33 35 37 37 36 37 37 36 37 38 37 36 36 36 37
10 9 10 10 9 9 9 9 9 10 12 13 13 14 16 17 18 17 18 22 24 22 18 18 18 17 17 18 18 18 17 17 18 21 24 26 28 30 32 32 33 33 34 34 34 36 37 37 36 37 37 37 38 39 40 40 38 36 36 35 35 34 32 31 31 31 32 35 34 30 30 32 34 34 34 34 33 31 32 34 35 36 36 36 37
10 9 9 9 8 8 8 8 9 10 12 13 13 14 15 16 17 18 21 26 27 22 18 18 18 18 18 18 18 18 17 16 19 22 24 26 28 30 32 33 34 35 36 35 35 35 36 34 32 30 30 29 30 32 33 33 33 33 34 34 33 33 33 32 32 31 31 34 34 30 28 29 29 28 30 31 31 30 29 31 33 35 36 36 37
9 9 7 7 7 7 7 8 9 11 12 13 13 14 14 15 16 19 23 26 23 19 18 19 19 19 19 18 18 18 18 18 19 22 24 27 30 32 33 35 36 38 39 38 36 34 32 30 29 28 27 25 24 26 27 27 27 28 30 31 31 32 33 34 35 35 34 33 32 32 31 29 28 26 26 26 28 30 30 28 29 32 33 34 35
7 7 7 7 7 7 7 8 9 10 12 12 13 13 14 15 18 21 23 23 20 18 19 19 19 18 17 18 19 18 18 18 19 22 25 28 30 32 34 34 34 35 35 32 28 26 25 25 25 25 25 25 23 23 24 26 26 27 28 29 30 29 29 29 31 34 35 33 32 34 35 34 33 33 31 29 29 30 30 28 29 31 32 33 34
6 7 7 7 6 6 7 7 8 10 11 11 12 13 14 18 20 20 20 20 19 19 19 19 20 19 18 18 19 19 18 17 19 23 26 28 31 32 32 32 31 29 28 26 24 23 23 23 24 24 24 23 21 21 24 26 27 27 27 27 28 28 27 25 24 26 30 33 33 33 33 32 33 35 35 34 35 34 33 32 33 33 34 34 33
6 6 6 6 6 6 6 7 8 9 10 11 12 13 15 18 17 16 18 20 19 18 19 20 20 19 17 17 18 19 18 17 19 23 26 29 31 32 32 32 30 29 27 24 23 22 22 22 22 23 23 21 20 22 26 29 29 28 27 26 26 26 26 26 23 20 21 25 27 28 27 27 27 29 30 31 33 35 35 34 34 33 34 34 34
6 6 6 6 6 6 6 7 7 8 9 10 11 13 14 15 15 15 18 19 18 19 19 19 18 18 17 17 18 20 20 18 20 24 27 30 31 32 32 31 29 29 27 25 24 23 22 20 20 21 22 21 22 25 27 29 29 29 28 27 25 24 25 24 23 20 18 19 20 22 24 24 25 27 27 27 28 31 33 35 35 34 34 34 34
5 5 6 6 5 6 6 6 6 8 8 9 11 11 11 12 14 16 17 18 18 19 19 17 17 17 17 18 19 21 22 22 22 24 26 28 28 28 28 28 27 27 26 25 23 22 20 18 17 19 20 21 23 26 26 27 28 29 29 29 28 26 25 24 23 21 19 19 19 21 23 23 24 26 27 27 27 28 31 34 34 34 36 36 36
5 6 6 6 6 6 6 5 6 7 7 10 12 10 9 12 14 15 16 17 16 17 17 16 16 17 18 19 19 19 21 21 20 21 22 23 24 24 25 25 26 25 24 22 21 19 19 18 15 14 17 20 22 23 24 25 25 26 27 29 30 29 27 27 27 25 23 22 21 22 22 22 22 24 25 26 28 29 31 33 32 32 35 37 37
6 6 6 6 6 6 5 5 5 5 6 9 10 9 8 12 14 14 15 15 15 15 16 16 17 17 18 18 17 17 19 20 20 20 19 20 21 22 23 24 24 23 22 20 20 21 21 18 12 10 15 20 22 24 25 26 26 25 24 26 28 30 31 31 31 30 29 28 27 26 25 24 22 23 23 24 25 26 28 31 31 32 35 37 39
7 6 7 6 6 5 6 7 6 5 6 7 7 8 9 12 13 12 12 15 15 14 15 16 16 16 17 18 16 16 19 22 22 20 19 19 19 19 20 20 20 21 21 20 20 22 22 18 14 13 16 19 21 24 27 28 28 27 25 25 26 28 31 33 33 33 34 34 34 32 31 29 27 25 24 23 22 22 23 25 27 28 30 34 37
7 7 6 6 7 9 9 8 6 5 6 5 6 8 9 9 12 11 11 15 16 13 14 16 16 15 17 18 16 18 22 24 22 20 18 18 17 15 14 14 15 17 19 18 18 19 19 17 16 18 20 19 19 22 26 28 29 29 29 28 27 27 29 31 33 35 36 36 36 35 34 32 30 28 27 25 23 20 19 21 24 26 28 30 32
7 6 7 9 10 10 8 5 4 5 5 5 6 8 7 8 11 11 10 14 15 13 13 16 16 15 19 20 18 20 23 21 21 21 19 17 14 11 9 10 12 14 15 14 14 15 16 18 19 19 20 19 18 18 21 23 25 28 30 30 29 27 27 28 29 30 31 32 33 34 34 33 32 30 29 29 28 25 22 22 24 26 27 27 29
8 8 10 11 10 7 5 5 5 5 5 5 6 7 7 7 9 9 10 13 15 13 13 16 16 17 20 20 19 21 22 21 22 23 21 18 14 9 6 8 12 14 12 11 13 15 17 19 19 18 17 17 15 14 16 17 19 21 24 27 28 28 27 26 24 23 24 24 24 25 26 26 26 26 26 26 28 28 27 27 27 27 28 28 28
9 10 10 9 7 7 6 5 4 5 6 6 5 5 6 6 6 8 11 14 14 13 14 15 16 17 19 19 19 21 22 22 23 23 22 22 18 13 8 8 12 15 13 12 15 19 20 20 18 16 15 15 13 12 12 12 13 14 15 18 20 22 23 23 23 23 23 23 20 19 17 16 16 17 18 19 21 22 24 27 28 28 27 27 25
11 10 9 9 9 8 6 4 5 6 7 5 4 4 6 6 6 8 11 14 14 14 14 15 15 16 17 17 18 20 21 22 23 23 24 24 22 19 14 10 12 14 12 13 16 19 19 18 17 16 15 16 15 15 14 13 12 11 11 10 10 11 12 14 16 18 19 21 21 21 19 17 16 16 17 18 19 20 22 25 27 27 26 24 22
12 11 11 10 9 7 5 6 8 7 5 3 3 4 6 8 8 9 12 14 14 14 14 14 15 15 16 16 17 18 20 21 23 24 25 25 25 23 20 15 14 14 13 13 14 14 14 16 18 20 20 19 19 18 17 17 17 16 14 12 9 8 7 7 8 10 12 14 18 20 21 21 21 21 21 21 21 22 23 24 25 26 27 27 26
13 12 11 10 8 7 7 8 8 6 4 4 4 5 6 8 10 11 13 14 14 13 14 14 14 15 16 16 16 17 18 20 22 24 25 25 24 24 22 19 17 15 13 12 13 13 15 20 23 24 23 23 23 22 22 21 21 20 18 15 13 11 8 6 5 5 6 7 10 13 16 19 22 23 24 25 25 26 27 27 27 28 29 29 28
14 12 11 10 9 8 8 7 6 5 5 5 6 8 8 10 12 13 13 13 12 12 13 13 13 14 15 16 16 17 18 19 20 22 22 22 22 22 22 20 18 16 15 14 15 16 19 22 24 25 26 27 27 26 26 25 25 23 22 20 18 17 15 12 10 8 6 4 4 4 6 9 12 15 18 20 21 22 23 24 25 25 25 24 23
14 13 12 11 10 9 8 7 6 6 6 6 8 10 10 11 12 13 13 12 11 10 11 12 12 13 14 15 16 16 16 17 17 18 18 18 18 19 20 19 18 16 16 16 17 19 21 22 23 25 26 27 28 28 28 28 27 27 26 24 23 23 22 20 19 16 12 10 8 6 5 4 2 2 5 7 8 10 12 13 14 14 15 15 14
13 12 11 10 10 10 9 8 6 6 6 6 7 9 10 10 11 12 13 13 11 9 10 11 12 13 14 15 15 15 14 14 14 14 14 14 14 16 17 17 17 17 17 18 20 21 22 23 23 24 25 26 26 27 28 28 28 28 28 27 27 27 26 26 25 22 18 16 15 13 13 12 11 9 7 6 4 3 2 1 2 2 3 4 5
14 12 11 11 12 12 11 9 8 8 7 6 6 7 10 10 10 11 12 13 12 10 10 12 13 13 14 14 14 14 14 13 12 11 11 11 11 12 13 14 14 15 15 17 19 20 21 21 22 22 23 24 25 25 26 26 26 27 27 27 28 28 29 29 29 27 24 22 20 19 19 19 19 18 16 15 14 13 12 11 10 10 10 10 10
14 12 10 10 10 10 10 9 8 8 7 6 6 6 7 8 9 10 11 11 12 12 11 12 14 14 14 14 14 14 13 12 12 11 10 9 9 10 12 13 14 14 14 15 17 18 19 19 19 19 20 22 22 22 23 23 23 24 25 26 27 27 28 28 27 27 27 27 25 25 24 24 23 23 23 21 20 20 19 19 18 17 17 18 18
14 13 13 12 10 8 7 7 7 8 7 7 7 6 6 7 8 9 10 11 11 12 12 13 14 13 13 12 13 13 12 12 12 11 10 9 9 10 12 13 13 13 13 14 16 17 18 18 18 18 18 18 18 19 19 20 20 21 22 23 23 23 24 25 25 25 26 26 26 26 26 25 25 26 26 26 25 24 23 23 22 22 21 20 20
15 15 16 16 14 11 8 8 8 9 8 8 7 6 7 8 8 7 7 8 9 10 11 12 12 13 12 11 11 11 10 10 10 9 9 9 9 9 10 11 12 13 13 15 16 17 17 18 18 17 17 16 16 16 17 17 17 17 19 20 20 20 20 21 23 23 22 22 23 23 23 24 24 24 24 25 26 25 24 23 22 22 21 20 19
16 15 15 16 15 14 13 10 9 9 10 10 9 8 8 8 7 5 4 6 6 6 8 11 12 13 12 10 9 8 7 8 9 9 8 9 9 9 10 11 12 13 14 14 15 16 16 16 16 16 16 15 15 15 15 16 15 14 15 16 17 18 19 19 20 21 21 20 19 19 19 20 21 20 20 20 22 23 23 21 20 19 19 18 18
16 15 14 14 15 15 14 12 11 13 14 13 10 9 8 7 7 5 4 6 7 4 3 7 10 10 10 10 9 8 7 8 9 9 9 10 9 10 10 11 12 13 13 14 14 14 15 15 14 14 14 14 14 14 14 15 15 14 13 13 14 16 18 19 19 20 21 20 19 18 18 17 17 17 17 17 17 19 19 18 17 16 15 14 15
17 15 14 13 14 13 11 12 14 16 16 14 11 8 7 7 8 6 5 6 8 4 2 5 7 6 6 9 9 7 7 8 8 9 9 9 10 10 10 10 11 11 12 13 13 13 14 14 13 13 13 13 13 14 14 15 15 14 13 13 14 16 17 18 19 22 23 21 19 20 20 18 16 16 16 16 15 16 18 17 15 13 13 12 12
17 16 15 16 16 13 10 12 15 16 15 13 9 8 10 10 9 7 6 6 6 4 3 6 8 7 6 7 6 4 4 5 6 7 8 9 9 10 10 9 10 10 10 11 11 12 13 13 13 13 13 13 14 15 15 16 16 14 13 14 16 17 17 18 22 24 25 22 19 20 21 21 18 15 14 15 15 15 18 19 17 14 14 15 14
18 17 17 18 19 16 13 12 13 13 11 10 9 10 11 11 9 8 7 7 7 7 7 9 10 8 6 5 4 3 3 4 5 5 6 7 8 9 9 9 9 9 8 9 10 11 11 11 12 12 13 14 15 16 17 17 16 14 12 13 16 17 18 21 24 26 25 23 20 19 20 22 20 17 15 15 15 16 17 20 20 18 16 16 17
17 17 18 18 19 20 18 16 14 12 10 10 11 12 12 11 10 10 9 8 9 10 10 11 9 7 5 5 5 4 3 4 4 5 6 6 7 8 8 8 9 9 8 8 9 10 10 10 10 10 12 14 15 16 17 17 17 15 14 13 14 16 17 20 23 24 23 23 22 19 19 20 22 21 19 16 15 15 16 18 21 21 19 17 18
17 18 19 19 18 20 21 20 19 17 14 13 13 13 12 12 13 12 11 10 10 10 11 11 8 5 5 6 5 4 4 4 3 5 5 6 6 7 7 8 8 8 8 8 9 9 9 9 9 10 12 14 15 16 17 18 18 18 16 13 13 14 16 19 21 21 21 22 22 20 18 18 20 21 20 18 17 16 16 16 20 22 22 20 18
19 18 19 20 20 20 20 21 20 18 16 15 15 15 14 13 13 12 13 12 11 10 11 11 9 6 6 6 5 5 5 4 3 4 5 5 6 6 7 7 7 7 8 8 8 9 9 9 9 10 11 13 15 16 17 18 19 19 17 15 13 13 16 17 19 21 22 22 22 20 18 17 18 19 19 18 17 17 16 17 19 21 22 21 20
21 19 20 21 22 22 21 21 19 18 17 17 17 16 16 16 15 13 13 14 12 11 11 11 10 8 6 6 6 6 6 5 4 4 4 5 5 6 6 6 6 6 7 7 8 9 9 8 8 9 10 12 13 14 15 16 17 18 18 17 14 13 14 15 16 19 21 22 21 20 19 18 17 17 17 17 17 17 17 17 18 19 20 21 21
25 22 21 22 22 22 22 21 19 18 17 17 17 17 19 19 16 13 12 13 13 12 11 10 11 10 7 6 6 7 6 6 5 5 5 5 5 5 6 5 5 5 6 6 7 7 8 8 8 8 9 11 12 13 14 15 16 16 17 17 16 16 16 15 15 16 19 21 21 19 18 19 19 17 16 15 17 19 20 18 17 18 19 20 21
28 24 23 22 22 21 21 19 18 18 18 18 19 20 20 19 16 14 13 13 13 11 11 12 12 11 8 7 9 9 8 7 7 6 5 5 4 4 5 5 4 4 5 5 5 6 6 7 7 7 8 10 11 12 13 14 14 15 16 17 17 17 16 14 14 15 17 19 20 19 17 17 19 19 17 16 16 19 20 20 19 19 19 20 20
29 26 25 23 22 20 20 18 17 18 19 19 19 19 19 17 15 15 15 15 14 13 12 12 13 11 9 10 11 10 9 9 8 7 6 5 4 4 4 4 4 3 3 4 4 5 5 6 6 7 8 9 10 11 12 13 14 14 15 16 17 16 15 14 14 16 17 18 19 20 18 17 19 21 21 18 18 20 21 21 22 21 20 20 20
30 28 25 23 22 21 20 19 18 18 19 19 18 18 17 16 15 15 16 17 17 16 13 12 12 11 11 12 12 10 9 9 9 7 7 6 5 4 3 3 3 3 3 3 3 4 4 5 6 6 7 8 9 10 11 13 13 13 14 15 16 16 15 14 15 17 18 18 18 19 19 17 18 20 22 21 22 22 22 22 23 23 22 21 21
31 28 23 20 21 21 20 19 19 19 20 20 18 17 17 16 15 16 17 18 19 18 15 13 12 12 13 13 13 12 10 10 9 9 8 7 5 4 3 3 3 3 2 2 2 3 3 3 4 5 6 7 8 9 10 11 13 13 13 15 16 15 14 14 15 16 16 17 18 18 18 17 17 18 20 22 23 24 23 22 22 22 23 22 21
32 27 21 19 20 20 19 19 19 19 19 20 19 17 18 18 17 17 18 18 18 18 15 14 14 14 14 15 14 13 11 10 9 9 9 8 6 4 4 3 3 3 3 2 1 2 2 2 2 3 4 5 6 7 8 10 11 12 12 14 15 14 12 12 13 13 14 16 16 16 16 16 17 18 19 21 22 23 22 21 21 21 22 22 22
32 29 23 20 19 19 19 19 19 18 19 20 19 18 18 19 19 18 19 18 18 17 15 15 16 16 16 16 15 14 11 10 10 10 11 9 7 5 4 4 4 3 3 2 2 2 2 1 1 1 2 3 4 5 6 8 10 11 10 12 13 13 11 11 11 12 13 15 16 15 15 15 17 18 20 21 21 20 19 18 18 19 19 19 20
Wind_Direction
250 258 256 296 297 285 299 311 310 313 317 309 305 312 313 310 306 303 301 298 298 297 297 296 295 294 294 294 294 293 294 295 293 290 282 273 271 279 283 281 278 278 277 275 277 277 274 269 266 265 265 266 268 269 269 268 263 261 261 259 257 256 251 247 249 254 257 257 258 259 260 259 256 250 249 250 250 260 273 267 251 248 251 252 255
224 229 269 295 274 274 292 304 303 307 309 306 311 314 307 304 304 304 303 301 301 299 297 295 294 295 295 296 296 295 295 295 296 298 299 291 277 271 277 281 279 280 280 279 277 275 275 274 271 267 266 266 266 267 270 271 266 263 263 261 259 255 249 247 249 252 256 258 257 257 258 257 254 251 249 248 248 256 266 267 257 250 248 250 255
232 260 274 269 263 277 292 296 295 301 306 309 312 305 302 306 307 307 305 303 303 301 298 297 296 296 296 295 295 295 296 298 297 296 299 301 295 283 274 275 280 281 281 283 283 279 275 275 275 272 270 269 267 265 266 269 268 268 267 262 257 255 251 251 251 251 254 258 257 255 256 256 255 254 252 251 253 256 258 260 261 256 248 247 252
247 251 241 249 269 283 289 287 290 298 304 308 304 301 305 309 308 309 309 307 307 305 302 301 299 297 296 295 294 294 294 295 295 294 290 290 295 294 284 275 277 284 285 282 282 283 280 276 276 275 271 270 272 270 268 268 267 268 268 263 257 257 258 255 253 252 252 255 257 256 256 256 255 254 253 254 256 255 252 254 259 259 255 253 253
238 249 252 264 279 283 281 286 292 296 302 302 299 302 307 309 310 312 311 310 309 307 306 304 302 300 298 297 295 292 293 293 293 293 291 285 284 289 292 286 279 279 280 276 273 275 277 275 276 275 270 268 272 273 270 269 269 270 271 269 265 262 260 255 252 251 249 251 255 257 256 255 253 253 253 255 254 250 248 250 254 257 260 259 257
252 267 267 273 279 275 278 286 289 292 295 294 298 305 308 308 310 311 311 310 308 308 307 303 299 299 298 298 296 291 287 285 285 286 289 289 286 284 286 285 276 270 271 270 265 263 265 266 269 270 267 264 270 275 272 269 270 271 273 273 270 267 264 258 253 250 248 250 254 256 257 254 251 251 253 252 251 249 251 253 255 258 262 261 258
259 254 261 272 274 273 280 284 285 289 291 295 305 309 307 307 308 309 307 305 305 304 298 288 282 281 281 281 282 281 278 277 278 280 282 285 285 280 275 272 270 267 268 269 267 265 265 264 263 263 263 262 267 277 278 273 270 269 270 274 274 272 269 261 255 252 252 253 254 254 256 257 255 254 254 252 251 253 257 259 258 258 258 257 256
249 253 265 271 268 273 280 281 283 289 293 302 307 305 306 308 306 305 306 308 311 309 302 295 287 278 273 270 269 271 274 276 278 277 277 277 276 275 274 272 271 269 268 268 268 268 268 268 266 261 260 262 264 269 273 274 273 270 270 275 280 280 276 266 259 257 254 252 252 253 256 259 259 257 255 253 252 255 259 260 260 258 254 252 254
251 257 265 264 268 276 279 279 285 293 300 303 303 304 308 307 305 310 315 315 313 310 308 308 303 293 285 281 279 279 280 280 281 279 278 278 277 277 277 275 274 272 271 270 269 267 266 268 268 263 259 259 261 263 266 268 271 274 276 279 281 282 280 272 264 260 256 254 252 251 253 256 256 255 254 253 254 257 260 261 260 257 255 255 256
250 250 254 264 274 274 273 280 286 294 299 299 303 308 307 307 312 317 314 305 300 304 310 312 311 310 307 303 301 300 297 292 286 283 282 282 281 282 282 281 280 278 277 275 273 271 268 266 266 266 263 262 261 262 264 265 267 272 277 281 283 280 277 274 269 266 265 263 259 253 249 251 254 254 253 255 258 260 261 261 258 256 256 258 259
241 246 257 266 270 267 272 283 287 292 298 301 307 308 307 315 319 310 301 297 298 302 309 312 312 311 310 311 310 307 304 299 291 286 286 286 284 283 284 284 285 284 284 283 281 279 277 275 274 274 272 270 266 264 264 263 265 270 273 276 280 277 272 270 270 269 267 265 264 259 252 253 256 258 257 258 259 260 260 259 258 258 259 260 263
235 249 259 263 263 265 273 282 288 296 302 307 307 306 312 319 312 301 302 304 303 304 311 315 316 313 311 311 309 306 303 297 290 287 287 287 285 284 284 284 285 285 285 286 285 285 285 286 286 285 284 281 277 273 269 264 264 270 273 273 274 272 268 264 264 265 264 262 264 264 258 256 258 260 261 260 261 262 262 261 260 260 260 261 264
242 250 255 260 259 262 272 284 294 298 303 306 306 311 318 315 306 306 310 308 308 313 317 316 315 314 314 313 310 309 306 299 293 288 286 285 284 284 284 284 285 286 286 286 287 287 287 287 288 288 289 289 285 282 280 275 270 271 272 270 269 267 266 263 261 262 261 260 263 264 261 261 262 263 264 264 264 264 262 261 263 264 262 262 266
239 241 248 256 256 265 279 287 294 298 301 305 309 315 315 307 306 311 312 310 313 318 317 316 317 317 317 314 310 309 307 303 297 293 290 288 286 285 285 287 287 288 289 290 289 286 285 285 285 287 288 289 289 289 288 286 281 277 273 269 267 265 263 262 260 259 259 259 262 264 263 264 264 264 266 266 265 266 264 263 266 268 268 266 266
231 240 247 251 254 271 283 289 296 300 302 304 309 314 311 308 309 312 312 312 315 318 318 319 319 317 315 312 309 307 307 304 300 298 295 292 291 291 293 294 294 293 294 294 291 287 285 284 284 285 287 290 293 291 287 284 281 279 276 273 269 265 265 268 267 262 259 259 260 261 262 262 263 265 268 268 267 268 269 269 271 272 272 269 267
228 238 238 243 259 274 283 293 299 300 300 302 306 309 311 314 316 314 312 312 314 319 321 319 317 315 314 312 310 309 309 307 303 301 298 295 294 296 297 297 298 297 296 293 290 288 287 286 286 286 286 287 286 281 278 278 277 278 277 276 273 269 267 270 271 265 262 262 262 263 265 264 263 264 267 267 267 267 269 269 270 270 269 268 268
227 234 230 241 261 271 280 294 300 300 302 305 307 307 310 317 322 317 313 315 320 323 321 318 316 317 317 316 314 310 307 305 303 298 295 295 296 298 300 301 300 299 298 297 296 295 293 290 288 289 289 285 278 274 274 276 276 276 276 275 272 268 266 268 268 264 264 265 265 267 268 267 264 262 260 260 261 262 264 263 263 263 264 264 265
226 224 227 240 253 264 277 289 293 297 304 308 306 304 310 321 323 317 314 319 324 322 319 317 319 322 320 314 308 305 303 303 302 298 297 299 303 306 306 306 305 305 307 309 309 309 308 302 293 289 287 282 276 274 276 279 278 276 274 272 269 265 264 267 265 258 255 257 260 261 262 263 263 261 259 257 256 257 260 260 260 262 264 264 264
221 222 229 237 244 258 273 276 280 297 310 310 309 314 321 322 320 318 320 323 323 321 320 322 324 323 317 312 314 318 320 321 319 313 310 311 313 314 312 311 312 314 317 320 322 325 326 320 308 293 284 281 279 276 276 278 278 275 272 269 266 264 262 263 264 261 257 258 259 258 257 259 261 261 260 259 258 256 258 260 260 261 263 264 265
216 225 227 231 244 257 261 260 273 297 304 304 318 336 331 315 316 324 326 322 320 323 327 328 325 320 318 326 339 340 335 335 335 328 325 325 322 319 316 317 320 324 326 329 334 339 339 335 330 310 288 281 279 278 277 278 279 278 274 269 265 264 261 259 260 261 263 265 263 261 262 264 265 264 263 262 260 259 259 260 260 259 260 262 263
218 224 227 235 243 237 239 251 259 269 278 290 317 333 321 309 313 324 324 319 321 328 334 334 328 324 331 341 346 343 341 345 346 341 336 335 330 325 325 329 332 331 329 333 341 347 348 347 343 323 299 285 280 281 282 282 280 280 278 273 268 266 264 262 260 259 262 267 268 267 267 267 266 266 265 264 263 263 262 262 262 261 261 261 261
218 225 227 227 227 231 246 263 263 260 274 290 307 316 316 308 309 316 320 324 331 338 339 336 331 335 351 356 351 347 348 349 349 349 345 340 337 335 341 348 346 334 328 333 346 351 347 337 326 317 309 300 292 286 283 280 278 277 276 274 271 269 267 265 263 261 261 264 267 267 267 268 268 267 265 264 265 271 276 277 277 274 270 268 268
221 223 219 222 233 244 257 272 268 269 289 302 301 309 317 307 305 312 321 331 343 348 341 337 337 347 4 11 6 359 356 357 2 3 357 348 343 346 359 5 356 343 334 339 349 348 334 323 318 316 314 311 304 296 288 283 280 276 274 275 275 274 272 268 266 266 265 266 268 269 270 273 274 271 268 264 264 267 273 277 280 281 279 278 277
220 216 221 232 240 241 244 256 267 278 286 285 289 304 313 308 309 314 320 335 349 351 346 348 353 359 7 12 15 13 11 15 17 14 10 5 357 350 351 360 4 2 354 350 353 346 337 335 335 331 327 322 316 307 297 290 285 280 277 275 274 274 274 271 268 269 269 269 270 272 275 279 282 282 280 275 272 270 269 267 269 275 281 283 282
219 215 223 233 228 224 239 256 266 271 268 272 289 300 299 301 307 309 320 340 352 352 355 1 4 6 7 11 19 22 21 23 24 22 22 21 16 7 356 1 23 26 12 4 8 3 357 358 358 353 350 349 349 344 331 318 309 298 288 280 274 271 270 267 266 265 264 263 263 265 268 270 274 277 277 275 273 272 270 266 264 266 273 280 284
215 213 216 220 224 235 249 246 245 262 267 273 295 290 273 280 297 309 326 346 353 352 358 4 5 9 10 12 19 23 23 27 30 29 29 28 24 23 22 31 51 51 35 28 27 13 4 11 19 21 23 23 20 20 15 5 356 345 329 314 300 289 281 275 270 267 264 262 259 257 254 251 251 251 251 253 256 258 261 264 265 263 264 270 278
214 214 216 221 231 240 240 233 244 261 267 267 280 269 259 275 299 318 335 347 351 354 359 2 4 10 12 12 19 24 22 24 28 30 31 31 30 31 35 44 57 58 48 45 42 25 17 32 44 45 46 45 42 40 36 30 25 21 16 12 7 357 342 322 303 289 281 274 268 261 255 249 248 247 248 249 251 253 256 260 264 265 264 267 275
215 217 217 221 225 225 230 244 256 260 253 257 258 241 248 281 304 323 337 345 349 353 358 360 3 9 12 11 16 22 22 21 23 24 25 27 29 32 38 44 50 51 51 55 57 50 45 49 53 54 54 54 53 51 49 46 42 39 36 36 35 32 28 16 345 322 312 302 291 280 270 261 255 254 255 257 259 260 261 264 268 270 270 274 281
217 217 216 217 220 222 228 241 255 253 245 250 251 245 254 282 303 318 333 341 345 351 358 1 3 8 13 12 12 16 19 20 19 19 18 21 26 31 35 38 39 42 49 57 60 57 52 51 54 56 56 55 54 54 53 52 51 50 48 48 48 48 48 47 45 42 35 16 350 324 302 284 271 266 265 267 270 272 274 277 280 283 283 285 287
220 219 217 216 219 221 222 224 233 241 238 243 258 266 274 287 300 314 328 334 339 351 1 4 6 11 15 14 12 12 14 16 17 16 14 18 26 34 37 38 37 38 45 52 55 58 57 55 54 55 55 55 56 56 54 52 52 53 53 53 54 55 56 56 56 58 61 64 68 69 65 56 28 282 272 276 280 284 288 291 292 291 288 283 275
219 218 218 220 217 213 216 222 231 235 232 234 255 273 283 291 299 311 320 326 335 353 3 7 11 16 18 18 14 11 11 13 14 12 10 13 23 33 39 41 41 41 45 51 54 55 56 55 53 53 53 53 53 54 54 53 54 55 55 55 56 57 58 59 59 60 63 69 74 80 85 86 87 90 94 92 89 86 63 353 319 305 286 264 251
216 214 218 227 225 219 223 231 230 228 231 231 241 265 283 293 301 306 312 322 333 346 359 7 10 14 18 19 16 12 12 13 13 12 8 5 14 28 36 39 40 38 40 47 50 50 49 48 48 49 49 49 48 48 51 52 53 54 56 58 58 58 57 57 59 61 63 64 68 72 78 82 85 89 93 96 97 97 97 96 93 91 94 95 91
215 212 214 224 228 231 238 239 226 221 228 228 227 243 267 284 296 302 307 320 332 339 349 358 2 7 15 18 15 13 13 13 14 17 11 2 9 28 35 37 37 34 35 41 46 45 43 40 39 42 44 45 44 44 45 48 50 51 54 55 56 57 56 55 57 59 61 63 65 67 70 74 78 82 84 87 91 93 93 92 91 90 91 90 86
215 214 211 212 218 230 241 235 221 217 221 226 230 236 244 255 272 290 304 317 327 334 340 345 347 354 7 17 15 11 11 12 13 17 16 10 16 28 34 36 37 35 35 41 44 43 40 37 33 33 36 39 40 40 40 40 43 47 51 52 53 54 55 55 54 53 54 57 60 62 63 64 67 70 72 74 79 83 86 87 87 87 84 82 81
216 218 219 216 214 215 217 217 221 224 223 223 228 233 240 251 261 276 296 308 319 329 334 334 336 343 356 12 15 7 4 10 12 13 17 19 20 25 31 38 41 38 38 44 45 42 39 36 32 29 29 31 34 37 36 34 33 39 46 48 48 49 52 55 55 53 50 51 54 57 58 58 56 56 59 62 64 67 70 72 75 76 75 72 72
216 220 229 231 225 219 216 215 220 225 223 219 220 225 232 244 254 260 275 287 298 319 326 320 324 336 346 360 10 4 359 10 12 9 15 23 25 26 30 35 41 42 41 44 47 45 41 38 34 30 28 27 29 33 36 35 32 33 39 42 43 45 47 50 53 54 52 51 53 55 58 60 58 53 50 51 53 55 58 61 63 64 64 63 63
217 218 227 238 239 234 227 221 219 223 226 230 234 235 236 244 249 243 242 262 269 275 297 303 314 329 336 339 346 347 349 5 10 6 11 20 24 29 34 36 39 41 41 43 47 49 46 43 40 36 33 31 31 34 38 41 40 40 43 45 45 47 49 50 52 53 51 51 54 56 56 60 64 63 59 55 53 53 54 56 58 59 61 63 65
221 219 217 225 239 241 229 219 222 228 237 247 247 233 221 231 242 239 234 257 269 263 219 261 284 299 302 305 317 332 346 358 2 360 5 14 20 28 36 38 36 37 39 41 45 47 48 47 45 44 44 41 39 39 42 45 46 48 54 57 56 55 56 57 57 53 48 47 53 57 55 53 59 68 70 69 66 62 57 56 60 68 72 76 76
223 223 217 218 230 235 220 214 226 237 245 249 240 218 217 224 230 233 234 246 261 257 224 245 265 277 285 293 306 329 344 343 345 352 3 9 14 24 33 38 39 39 38 39 42 44 45 47 46 47 50 49 46 45 45 44 45 49 57 63 63 59 56 57 56 50 42 39 47 55 55 51 51 59 68 71 70 68 62 56 58 66 73 77 79
223 227 225 221 224 226 214 211 228 241 243 234 217 215 227 232 226 222 225 227 232 233 234 248 267 283 296 302 308 314 309 313 330 352 3 5 9 18 25 31 42 46 43 43 46 44 42 45 46 47 51 53 52 49 47 44 44 45 49 57 65 65 61 58 54 46 37 34 41 50 53 52 49 48 54 63 67 68 64 60 58 62 68 74 77
220 226 233 232 228 225 219 215 219 223 222 220 218 220 226 229 222 216 216 221 229 237 245 256 267 279 284 284 292 301 300 308 329 345 355 1 7 14 18 22 34 44 46 49 53 50 44 44 46 48 53 55 53 49 48 47 45 43 45 53 62 65 63 61 58 49 36 30 35 43 48 51 50 46 46 55 63 63 64 65 64 63 65 69 73
218 223 233 238 235 231 228 227 227 225 221 222 224 221 221 225 227 222 217 219 227 235 250 262 266 263 266 271 278 286 287 293 318 332 342 356 5 12 17 18 23 34 41 45 53 56 50 43 43 47 53 55 52 47 45 45 44 44 48 55 58 58 61 64 64 59 45 31 29 35 41 45 48 46 44 48 52 54 60 68 68 66 66 66 67
220 222 231 238 240 239 236 235 234 232 226 221 220 221 221 224 227 224 221 224 225 226 241 260 265 253 246 255 259 263 272 281 299 316 329 347 357 5 16 19 19 28 35 38 45 55 55 47 42 44 48 51 51 47 43 42 41 41 45 51 55 57 60 60 61 61 53 37 26 29 35 38 44 48 47 45 46 49 59 69 70 68 67 66 64
223 222 228 237 241 242 241 238 234 228 225 223 223 225 224 223 223 226 228 230 230 225 231 251 264 257 242 243 247 250 260 273 284 298 315 333 346 354 6 14 18 23 31 33 36 46 53 53 50 49 49 51 52 49 45 43 41 40 42 48 50 51 53 51 51 56 55 42 29 27 30 32 37 45 48 47 44 44 49 61 69 69 67 67 67
227 222 222 230 239 242 243 241 233 222 220 223 223 223 228 230 228 226 226 229 234 230 221 229 250 258 250 240 242 245 250 259 267 277 292 308 328 342 352 2 10 15 24 31 33 37 45 51 54 56 58 56 54 51 47 45 43 42 43 46 47 48 51 51 50 55 57 48 35 28 27 29 32 38 43 45 45 43 41 46 56 61 60 62 68
227 219 214 221 233 237 238 239 231 218 216 221 220 222 233 241 236 222 215 220 229 229 214 213 232 245 237 224 233 241 244 247 252 257 267 284 308 327 334 342 353 2 13 25 30 32 38 43 46 52 58 59 57 55 51 47 45 44 45 46 47 49 53 53 53 56 59 52 40 30 28 35 38 38 38 42 45 44 41 39 43 51 54 58 66
225 218 213 218 227 229 229 230 226 216 215 220 222 223 232 241 235 221 214 216 221 222 215 214 226 233 222 220 234 242 239 240 247 246 245 257 277 299 315 325 332 343 2 16 21 24 32 36 35 39 47 51 53 53 51 49 47 46 46 47 48 49 52 54 53 54 57 55 43 30 28 39 44 39 37 42 47 47 44 39 38 43 49 53 58
224 219 216 218 223 227 226 225 221 215 215 220 223 222 225 228 224 216 214 217 220 221 215 212 221 224 217 221 236 242 235 235 244 245 240 241 249 260 282 303 310 318 340 2 7 11 21 28 29 30 34 40 45 47 48 48 48 46 45 46 47 47 48 51 52 52 55 56 46 31 28 41 49 41 37 45 52 51 47 41 37 37 43 48 51
222 218 214 216 222 225 225 225 222 217 216 220 222 221 219 218 216 214 214 220 228 230 220 210 214 219 216 220 233 239 235 235 242 246 243 241 238 239 254 272 284 293 306 330 351 358 6 17 23 25 25 31 38 42 44 46 47 46 46 47 46 45 46 47 49 50 52 54 50 38 32 43 56 53 46 48 52 51 49 45 39 38 41 44 46
220 213 208 215 224 224 223 225 224 221 219 219 220 220 219 215 213 213 214 221 233 237 225 209 209 215 218 223 233 238 236 237 240 242 246 247 240 233 241 255 265 275 282 289 306 325 338 352 11 24 26 27 33 39 44 48 47 45 46 48 48 46 47 48 48 51 56 58 55 48 43 50 63 66 60 55 51 48 48 48 43 40 42 43 44
222 216 209 212 221 224 224 225 225 224 222 221 219 219 220 217 214 214 216 220 231 236 224 209 209 214 218 225 233 238 236 232 228 231 243 255 255 242 237 245 253 260 265 265 270 279 292 304 334 17 33 39 42 42 46 53 52 47 47 53 52 47 48 51 53 56 65 66 60 55 56 62 69 72 69 63 54 47 46 51 50 45 42 44 47